• En España
  • Lista de países
  • Para 7 días
  • Temperatura del agua
  • Mapa Satelital
  • El tiempo en el mapa
  • Informadores
  • user-avatar
    Iniciar sesión

    Tiempo cada hora Vyselki

    Hoy, 19 Septiembre, Miércoles

    Tiempo Temperatura Precipitaciones Viento Presión Humedad
    00:00 +11°C° 0 mm 3 mps 747 mmHg 90%
    01:00 +12°C° 0 mm 2 mps 747 mmHg 91%
    02:00 +10°C° 0 mm 2 mps 747 mmHg 92%
    03:00 +10°C° 0 mm 2 mps 748 mmHg 92%
    04:00 +10°C° 0 mm 2 mps 748 mmHg 92%
    05:00 +10°C° 0 mm 2 mps 748 mmHg 93%
    06:00 +12°C° 0 mm 2 mps 748 mmHg 87%
    07:00 +12°C° 0 mm 3 mps 748 mmHg 82%
    08:00 +14°C° 0 mm 3 mps 748 mmHg 77%
    09:00 +17°C° 0 mm 3 mps 748 mmHg 72%
    10:00 +19°C° 0 mm 4 mps 748 mmHg 67%
    11:00 +20°C° 0 mm 4 mps 748 mmHg 62%
    12:00 +21°C° 0 mm 5 mps 748 mmHg 60%
    13:00 +22°C° 0 mm 5 mps 747 mmHg 59%
    14:00 +23°C° 0 mm 5 mps 747 mmHg 57%
    15:00 +22°C° 0 mm 4 mps 747 mmHg 62%
    16:00 +21°C° 0 mm 4 mps 747 mmHg 66%
    17:00 +20°C° 0 mm 3 mps 747 mmHg 70%
    18:00 +19°C° 0 mm 3 mps 747 mmHg 75%
    19:00 +18°C° 0 mm 3 mps 747 mmHg 79%
    20:00 +16°C° 0 mm 3 mps 747 mmHg 83%
    21:00 +16°C° 0 mm 3 mps 747 mmHg 86%
    22:00 +16°C° 0 mm 3 mps 747 mmHg 88%
    23:00 +14°C° 0 mm 3 mps 747 mmHg 90%

    Mañana, 20 Septiembre, Jueves

    Tiempo Temperatura Precipitaciones Viento Presión Humedad
    00:00 +14°C° 0 mm 3 mps 747 mmHg 91%
    01:00 +14°C° 0 mm 3 mps 747 mmHg 92%
    02:00 +14°C° 0 mm 3 mps 747 mmHg 93%
    03:00 +14°C° 0 mm 3 mps 747 mmHg 93%
    04:00 +14°C° 0 mm 3 mps 746 mmHg 94%
    05:00 +13°C° 0 mm 3 mps 746 mmHg 94%
    06:00 +16°C° 0 mm 3 mps 746 mmHg 89%
    07:00 +17°C° 0 mm 4 mps 747 mmHg 84%
    08:00 +18°C° 0 mm 4 mps 747 mmHg 80%
    09:00 +20°C° 0 mm 4 mps 747 mmHg 74%
    10:00 +22°C° 0 mm 4 mps 747 mmHg 69%
    11:00 +23°C° 0 mm 5 mps 747 mmHg 63%
    12:00 +25°C° 0 mm 5 mps 747 mmHg 61%
    13:00 +25°C° 0 mm 5 mps 746 mmHg 59%
    14:00 +26°C° 0 mm 5 mps 746 mmHg 57%
    15:00 +25°C° 0 mm 4 mps 746 mmHg 62%
    16:00 +24°C° 0 mm 3 mps 746 mmHg 67%
    17:00 +22°C° 0 mm 3 mps 746 mmHg 72%
    18:00 +21°C° 0 mm 3 mps 746 mmHg 77%
    19:00 +20°C° 0 mm 2 mps 747 mmHg 82%
    20:00 +18°C° 0 mm 2 mps 747 mmHg 87%
    21:00 +18°C° 0 mm 2 mps 747 mmHg 88%
    22:00 +17°C° 0 mm 2 mps 747 mmHg 89%
    23:00 +17°C° 0 mm 2 mps 747 mmHg 91%

    Pasado mañana, 21 Septiembre, Viernes

    Tiempo Temperatura Precipitaciones Viento Presión Humedad
    00:00 +16°C° 0 mm 1 mps 747 mmHg 91%
    01:00 +16°C° 0 mm 1 mps 748 mmHg 91%
    02:00 +15°C° 0 mm 1 mps 748 mmHg 91%
    03:00 +15°C° 0 mm 1 mps 748 mmHg 91%
    04:00 +15°C° 0 mm 1 mps 748 mmHg 92%
    05:00 +14°C° 0 mm 1 mps 748 mmHg 92%
    06:00 +16°C° 0 mm 1 mps 748 mmHg 87%
    07:00 +18°C° 0 mm 1 mps 749 mmHg 82%
    08:00 +17°C° 0 mm 0 mps 749 mmHg 77%
    09:00 +19°C° 0 mm 0 mps 749 mmHg 70%
    10:00 +23°C° 0 mm 1 mps 749 mmHg 64%
    11:00 +24°C° 0 mm 1 mps 749 mmHg 57%
    12:00 +25°C° 0 mm 1 mps 749 mmHg 53%
    13:00 +25°C° 0 mm 1 mps 749 mmHg 50%
    14:00 +26°C° 0 mm 1 mps 749 mmHg 46%
    15:00 +25°C° 0 mm 1 mps 749 mmHg 50%
    16:00 +22°C° 0 mm 0 mps 749 mmHg 54%
    17:00 +21°C° 0 mm 0 mps 748 mmHg 58%
    18:00 +22°C° 0 mm 1 mps 748 mmHg 61%
    19:00 +21°C° 0 mm 1 mps 749 mmHg 63%
    20:00 +20°C° 0 mm 1 mps 749 mmHg 65%
    21:00 +18°C° 0 mm 2 mps 749 mmHg 67%
    22:00 +18°C° 0 mm 2 mps 749 mmHg 69%
    23:00 +17°C° 0 mm 2 mps 749 mmHg 71%

    22 Septiembre, Sábado

    Tiempo Temperatura Precipitaciones Viento Presión Humedad
    00:00 +17°C° 0 mm 2 mps 748 mmHg 72%
    01:00 +17°C° 0 mm 2 mps 748 mmHg 73%
    02:00 +16°C° 0 mm 2 mps 748 mmHg 75%
    03:00 +16°C° 0 mm 2 mps 748 mmHg 76%
    04:00 +16°C° 0 mm 2 mps 748 mmHg 77%
    05:00 +16°C° 0 mm 2 mps 748 mmHg 78%
    06:00 +17°C° 0 mm 3 mps 748 mmHg 74%
    07:00 +18°C° 0 mm 3 mps 748 mmHg 71%
    08:00 +19°C° 0 mm 3 mps 748 mmHg 68%
    09:00 +21°C° 0 mm 4 mps 748 mmHg 63%
    10:00 +23°C° 0 mm 4 mps 747 mmHg 59%
    11:00 +25°C° 0 mm 4 mps 747 mmHg 54%
    12:00 +26°C° 0 mm 4 mps 747 mmHg 52%
    13:00 +26°C° 0 mm 5 mps 747 mmHg 50%
    14:00 +27°C° 0 mm 5 mps 746 mmHg 48%
    15:00 +26°C° 0 mm 4 mps 746 mmHg 53%
    16:00 +24°C° 0 mm 3 mps 746 mmHg 58%
    17:00 +22°C° 0 mm 3 mps 745 mmHg 63%
    18:00 +21°C° 0 mm 3 mps 745 mmHg 65%
    19:00 +20°C° 0 mm 3 mps 745 mmHg 66%
    20:00 +19°C° 0 mm 3 mps 745 mmHg 68%
    21:00 +19°C° 0 mm 3 mps 745 mmHg 68%
    22:00 +18°C° 0 mm 3 mps 745 mmHg 68%
    23:00 +18°C° 0 mm 3 mps 744 mmHg 68%

    23 Septiembre, Domingo

    Tiempo Temperatura Precipitaciones Viento Presión Humedad
    00:00 +18°C° 0 mm 3 mps 744 mmHg 69%
    01:00 +17°C° 0 mm 3 mps 744 mmHg 69%
    02:00 +17°C° 0 mm 3 mps 744 mmHg 69%
    03:00 +17°C° 0 mm 3 mps 743 mmHg 70%
    04:00 +16°C° 0 mm 3 mps 743 mmHg 70%
    05:00 +16°C° 0 mm 3 mps 743 mmHg 71%
    06:00 +17°C° 0 mm 3 mps 742 mmHg 67%
    07:00 +18°C° 0 mm 4 mps 742 mmHg 64%
    08:00 +20°C° 0 mm 4 mps 742 mmHg 61%
    09:00 +21°C° 0 mm 4 mps 742 mmHg 57%
    10:00 +22°C° 0 mm 5 mps 742 mmHg 53%
    11:00 +25°C° 0 mm 5 mps 742 mmHg 48%
    12:00 +23°C° 0 mm 5 mps 741 mmHg 51%
    13:00 +23°C° 0 mm 4 mps 741 mmHg 53%
    14:00 +22°C° 0 mm 3 mps 741 mmHg 55%
    15:00 +21°C° 0.3 mm 4 mps 741 mmHg 62%
    16:00 +19°C° 0.3 mm 4 mps 741 mmHg 69%
    17:00 +17°C° 0.3 mm 4 mps 741 mmHg 76%
    18:00 +15°C° 0.9 mm 5 mps 741 mmHg 81%
    19:00 +13°C° 0.9 mm 6 mps 742 mmHg 85%
    20:00 +10°C° 0.9 mm 6 mps 742 mmHg 89%
    21:00 +10°C° 0.2 mm 6 mps 742 mmHg 89%
    22:00 +10°C° 0.2 mm 6 mps 743 mmHg 88%
    23:00 +9°C° 0.2 mm 6 mps 743 mmHg 88%

    24 Septiembre, Lunes

    Tiempo Temperatura Precipitaciones Viento Presión Humedad
    00:00 +9°C° 0 mm 5 mps 743 mmHg 88%
    01:00 +9°C° 0 mm 5 mps 743 mmHg 87%
    02:00 +9°C° 0 mm 5 mps 743 mmHg 87%
    03:00 +9°C° 0 mm 5 mps 744 mmHg 88%
    04:00 +9°C° 0 mm 5 mps 744 mmHg 88%
    05:00 +8°C° 0 mm 4 mps 744 mmHg 89%
    06:00 +10°C° 0 mm 4 mps 744 mmHg 88%
    07:00 +10°C° 0 mm 4 mps 744 mmHg 87%
    08:00 +10°C° 0 mm 4 mps 744 mmHg 86%
    09:00 +11°C° 0 mm 4 mps 744 mmHg 83%
    10:00 +13°C° 0 mm 4 mps 744 mmHg 80%
    11:00 +14°C° 0 mm 3 mps 744 mmHg 77%
    12:00 +16°C° 0 mm 3 mps 744 mmHg 75%
    13:00 +17°C° 0 mm 3 mps 744 mmHg 72%
    14:00 +18°C° 0 mm 2 mps 744 mmHg 69%
    15:00 +17°C° 0 mm 2 mps 744 mmHg 73%
    16:00 +17°C° 0 mm 2 mps 743 mmHg 77%
    17:00 +18°C° 0 mm 1 mps 743 mmHg 80%
    18:00 +16°C° 0 mm 1 mps 743 mmHg 84%
    19:00 +15°C° 0 mm 2 mps 743 mmHg 88%
    20:00 +14°C° 0 mm 2 mps 743 mmHg 92%
    21:00 +14°C° 0 mm 1 mps 743 mmHg 92%
    22:00 +14°C° 0 mm 1 mps 743 mmHg 93%
    23:00 +14°C° 0 mm 1 mps 743 mmHg 93%
    Mostrar más